Location: Chuathbaluk
(61.5726°N, 159.2454°W)
Time: 14:41:24
(UTC+00:00)

Altair - Pass Details

Date: 05 December 2020
Orbit: 1501 x 1682 km, 47.2° (Epoch: 17 January)

Event Time Altitude Azimuth Distance (km) Brightness Sun altitude
Rises 08:02:25 0° 246° (WSW) 4,711 10.3 -43.6°
Reaches altitude 10° 08:05:51 10° 238° (WSW) 3,706 9.6 -43.9°
Enters shadow 08:07:24 15° 232° (SW) 3,292 9.2 -44.1°
